Regional Weather Roundup
Issued by NWS

Home | Current Version | Previous Version | Graphics & Text | Print | Product List | Glossary On
Versions: 1 2 3 4 5 6 7 8 9 10 11 12 13 14 15 16 17 18 19 20 21 22 23 24 25 26 27 28 29 30 31 32 33 34 35 36 37 38 39 40 41 42 43 44 45 46 47 48 49 50
000
ASUS45 KBOI 251910
RWRID

IDAHO REGIONAL WEATHER ROUNDUP
NATIONAL WEATHER SERVICE BOISE ID
100 PM MDT WED MAY 25 2016

NOTE: "FAIR" INDICATES FEW OR NO CLOUDS BELOW 12000 FEET
WITH NO SIGNIFICANT WEATHER AND/OR OBSTRUCTIONS TO VISIBILITY

IDZ012-014-252000-
SOUTHWEST IDAHO


CITY           SKY/WX    TMP DP  RH WIND       PRES   REMARKS
BOISE          SUNNY     67  37  33 NW16      30.01F
CALDWELL       SUNNY     69  43  38 W8G17     30.01F
MOUNTAIN HOME  PTSUNNY   69  42  38 W12G22    30.00F
$$

IDZ016-017-252000-
SOUTHCENTRAL IDAHO


CITY           SKY/WX    TMP DP  RH WIND       PRES   REMARKS
BURLEY         MOSUNNY   62  41  46 W13G21    30.02F
JEROME         MOSUNNY   62  39  42 SW14G24   30.03F
TWIN FALLS     PTSUNNY   61  40  45 W18G24    30.04S
$$

IDZ019>023-252000-
SOUTHEAST IDAHO


CITY           SKY/WX    TMP DP  RH WIND       PRES   REMARKS
IDAHO FALLS    CLOUDY    58  43  57 SW9       30.02S
POCATELLO      CLOUDY    61  42  49 W14G21    30.02F
REXBURG        CLOUDY    54  43  66 SW6       30.02F
$$

IDZ006-010-011-018-031-032-252000-
CENTRAL IDAHO MOUNTAINS


CITY           SKY/WX    TMP DP  RH WIND       PRES   REMARKS
MCCALL         MOSUNNY   57  30  35 N8        30.03S
HAILEY         PTSUNNY   57  36  44 N6        30.02F
STANLEY          N/A     51  29  42 NW7       30.06S
SALMON         PTSUNNY   57  39  51 NW5       29.99F
CHALLIS        PTSUNNY   56  37  49 VRB5      30.01F
$$

IDZ002-004-006-007-026-252000-
NORTHERN IDAHO


CITY           SKY/WX    TMP DP  RH WIND       PRES   REMARKS
LEWISTON       MOSUNNY   65  46  50 VRB3      30.04F
LOWELL           N/A     56  53  90 VRB5      30.05R
COEUR D`ALENE  CLOUDY    64  50  59 W10       30.00R
MULLAN PASS    PTSUNNY   48  42  80 NW7       30.06S
$$



USA.gov is the U.S. government's official web portal to all federal, state and local government web resources and services.